Location: Unspecified
(41.1637°N, 24.2901°E)
Time: 22:43:56
(UTC+02:00)

ISS - Pass Details

Date: 18 September 2019
Orbit: 411 x 421 km, 51.6° (Epoch: 19 September)

Event Time Altitude Azimuth Distance (km) Brightness Sun altitude
Rises 19:47:15 0° 212° (SSW) 2,329 0.2 -15.6°
Reaches altitude 10° 19:49:27 10° 202° (SSW) 1,471 -0.9 -16.0°
Enters shadow 19:51:56 31° 157° (SSE) 753 -2.8 -16.4°
